Weather History for Lawrenceville, IL

Change the Weather History Date:

Tuesday, February 5, 2013

  Actual Average Record
Temperature  
Mean Temperature 35 °F 33 °F  
Max Temperature 47 °F 41 °F 66 °F (1991)
Min Temperature 23 °F 25 °F -3 °F (2009)
Degree Days  
Heating Degree Days 30 32  
Month to date heating degree days 185 162  
Since 1 July heating degree days 3039 3013  
Cooling Degree Days 0 0  
Month to date cooling degree days 0 0  
Year to date cooling degree days 0 0  
Moisture  
Dew Point 28 °F    
Average Humidity 76    
Maximum Humidity 92    
Minimum Humidity 60    
Precipitation  
Precipitation 0.00 in 0.08 in 0.69 in (2008)
Month to date precipitation 0.01 0.37  
Year to date precipitation 6.42 2.75  
Sea Level Pressure  
Sea Level Pressure 29.99 in    
Wind  
Wind Speed 7 mph (West)    
Max Wind Speed 17 mph    
Max Gust Speed 21 mph    
Visibility 5 miles    
Events      
T = Trace of Precipitation, MM = Missing Value Source: NWS Daily Summary

Daily Weather History Graph

Daily Weather History Graph

Search for Another Location

Airport:

Trip Planner

Search our weather history database for the weather conditions in past years. The results will help you decide how hot, cold, wet, or windy it might be!

Date:

Astronomy

Feb. 05, 2013 Rise Set
Actual Time 6:52 AM CST 5:17 PM CST
Civil Twilight 6:24 AM CST 5:44 PM CST
Nautical Twilight 5:52 AM CST 6:16 PM CST
Astronomical Twilight 5:21 AM CST 6:47 PM CST
Moon 2:32 AM CST (2/5) 12:35 PM CST (2/5)
Length of Visible Light 11h 20m
Length of Day
10h 24m
Waning Crescent, 26% of the Moon is Illuminated
Feb 5
Waning Crescent
Feb 10
New
Feb 17
First Quarter
Feb 25
Full
Mar 4
Last Quarter

Hourly Weather History & Observations

Time (CST) Temp. Windchill Dew Point Humidity Pressure Visibility Wind Dir Wind Speed Gust Speed Precip Events Conditions
12:53 AM 30.9 °F 23.5 °F 26.1 °F 82% 29.96 in 5.0 mi NNW 8.1 mph - N/A   Haze
1:53 AM 30.0 °F 24.1 °F 26.1 °F 85% 29.96 in 4.0 mi NNW 5.8 mph - N/A   Clear
2:53 AM 28.9 °F - 25.0 °F 85% 29.95 in 4.0 mi Calm Calm - N/A   Clear
3:53 AM 27.0 °F - 24.1 °F 89% 29.95 in 4.0 mi Calm Calm - N/A   Clear
4:53 AM 27.0 °F - 24.1 °F 89% 29.96 in 3.0 mi Calm Calm - N/A   Clear
5:53 AM 25.0 °F 19.3 °F 21.9 °F 88% 29.98 in 4.0 mi WNW 4.6 mph - N/A   Clear
6:53 AM 26.1 °F - 24.1 °F 92% 29.99 in 3.0 mi Calm Calm - N/A   Clear
7:02 AM 26.6 °F - 23.0 °F 86% 29.97 in 2.0 mi Calm Calm - N/A   Clear
7:53 AM 28.0 °F 24.2 °F 25.0 °F 88% 30.00 in 2.0 mi WSW 3.5 mph - N/A   Clear
8:15 AM 28.4 °F 24.6 °F 26.6 °F 93% 29.99 in 3.0 mi WSW 3.5 mph - N/A   Clear
8:53 AM 30.0 °F 26.5 °F 26.1 °F 85% 30.00 in 3.0 mi South 3.5 mph - N/A   Partly Cloudy
10:53 AM 33.1 °F 26.1 °F 27.0 °F 78% 29.98 in 5.0 mi South 8.1 mph - N/A   Haze
11:53 AM 36.0 °F 27.5 °F 28.9 °F 76% 29.96 in 4.0 mi SSW 12.7 mph - N/A   Haze
12:53 PM 39.9 °F 31.8 °F 30.9 °F 70% 29.93 in 5.0 mi SW 15.0 mph - N/A   Haze
1:53 PM 44.1 °F 37.4 °F 32.0 °F 63% 29.92 in 5.0 mi SW 13.8 mph - N/A   Haze
2:53 PM 46.0 °F 39.9 °F 34.0 °F 63% 29.91 in 5.0 mi SW 13.8 mph 20.7 mph N/A   Haze
3:53 PM 46.0 °F 40.2 °F 34.0 °F 63% 29.92 in 6.0 mi WSW 12.7 mph - N/A   Haze
4:53 PM 44.1 °F 40.1 °F 34.0 °F 68% 29.94 in 6.0 mi West 6.9 mph - N/A   Haze
5:53 PM 42.1 °F 40.2 °F 33.1 °F 70% 29.96 in 7.0 mi West 3.5 mph - N/A   Clear
6:53 PM 39.9 °F 37.8 °F 32.0 °F 73% 29.99 in 7.0 mi West 3.5 mph - N/A   Clear
7:53 PM 36.0 °F 31.1 °F 30.9 °F 82% 30.02 in 6.0 mi WNW 5.8 mph - N/A   Haze
8:53 PM 37.0 °F 29.3 °F 30.0 °F 76% 30.06 in 5.0 mi NW 11.5 mph - N/A   Haze
9:53 PM 37.0 °F 29.8 °F 30.0 °F 76% 30.09 in 6.0 mi NW 10.4 mph - N/A   Haze
10:53 PM 35.1 °F 27.4 °F 28.9 °F 78% 30.11 in 6.0 mi NNW 10.4 mph - N/A   Haze
11:53 PM 33.1 °F 26.1 °F 28.0 °F 82% 30.13 in 5.0 mi NW 8.1 mph - N/A   Haze